Find Local Weather

World > North America > United States > California

San Diego, California Regional Weather

Lat: 32.72N, Lon: 117.16W
Wx Zone: CAZ043
Warning FLW WEATHER ALERT - (More Info. Click Here) Warning
Feedback

San Diego, CA Regional Weather

Expires:201903211400;;699840
ASUS46 KSGX 211311
RWRSGX

SAN DIEGO HOURLY WEATHER ROUNDUP
NATIONAL WEATHER SERVICE SAN DIEGO CA
600 AM PDT THU MAR 21 2019

NOTE: "FAIR" INDICATES FEW OR NO CLOUDS BELOW 12,000 FEET WITH NO 
SIGNIFICANT WEATHER AND/OR OBSTRUCTIONS TO VISIBILITY.


CAZ042-043-060-061-PZZ750-775-211400-

GREATER SAN DIEGO AREA
  
CITY           SKY/WX    TMP DP  RH WIND       PRES   REMARKS
SAN DIEGO AP   MOCLDY    57  46  66 NW5       30.16R                  
NATIONAL CITY    N/A     54  48  79 CALM      30.15S                  
CHULA VISTA      N/A     50  49  95 CALM      30.07R                  
IMPERIAL BEACH CLEAR     55  46  71 MISG      30.16R                  
BROWN FIELD    MOCLDY    50  48  93 CALM      30.15R                  
MIRAMAR MCAS   PTCLDY    52  47  83 CALM      30.14R                  
MONTGOMERY FLD PTCLDY    53  47  79 W3        30.15R                  
GILLESPIE FLD  FAIR      48  46  93 CALM      30.14R                  

$$

NORTH SAN DIEGO COUNTY
  
CITY           SKY/WX    TMP DP  RH WIND       PRES   REMARKS
CAMP PENDLETON PTCLDY    44  44 100 CALM      30.14R                  
OCEANSIDE AP   MOCLDY    48  48 100 CALM      30.13R                  
OCEANSIDE HBR    N/A     51  47  86 CALM      30.16R                  
VISTA            N/A     49  44  82 CALM      30.11R                  
CARLSBAD       MOCLDY    54  50  86 CALM      30.13R                  
DEL MAR          N/A     54  49  82 W1        30.15R                  
LA JOLLA SCRIP   N/A     56  49  78 SW3       30.14R                  
FALLBROOK      FAIR      46  46 100 CALM      30.14R                  
ESCONDIDO        N/A     52  49  90 W5        30.15R                  
SAN MARCOS       N/A     51  49  91 CALM      30.18R                  
POWAY            N/A     48  45  89 CALM      30.17R                  

$$

EAST SAN DIEGO COUNTY
  
CITY           SKY/WX    TMP DP  RH WIND       PRES   REMARKS
RAMONA         MOCLDY    48  46  93 W3        30.13R                  
SANTEE LAKES     N/A     49  46  90 N2        30.11R                  
LA MESA          N/A     50  47  91 CALM      30.11R                  
JAMUL            N/A     47  45  92 CALM      30.16R                  
CAMPO            N/A     45  40  82 SW8       30.07R                  

$$

ORANGE COUNTY AND THE LOS ANGELES BASIN
  
CITY           SKY/WX    TMP DP  RH WIND       PRES   REMARKS
JOHN WAYNE AP  MOCLDY    54  46  74 S3        30.12S                  
LAGUNA BEACH     N/A     52  48  85 E3        30.11R                  
LAKE FOREST FR   N/A     49  44  83 CALM      30.01R                  
HUNTINGTON BCH   N/A     55  50  83 W7        30.13R                  
LOS ALAMITOS   FAIR      49  46  87 CALM      30.11S                  
FULLERTON      PTCLDY    52  46  80 CALM      30.11R                  
LONG BEACH     PTCLDY    56  46  69 W3        30.11S                  
L.A. AP        MOCLDY    55  47  74 W12       30.11R                  
L.A. DOWNTOWN  PTCLDY    53  46  77 CALM      30.10R                  

$$

THE INLAND EMPIRE
  
CITY           SKY/WX    TMP DP  RH WIND       PRES   REMARKS
CORONA         PTCLDY    50  45  83 S3        30.12R                  
CHINO          PTCLDY    47  46  97 SW6       30.12R                  
ONTARIO        MOCLDY    53  48  83 SW6       30.10R                  
SAN BERNARDINO MOCLDY    50  44  79 SE3       30.11S                  
RIVERSIDE AP   CLEAR     46  44  93 S3        30.11S                  
MORENO VALLEY    N/A     45  45 100 SE5       28.21S                  
MARCH ARB      FOG       43  43 100 SE7       30.10S VSB 1/4          
PERRIS           N/A     44  44 100 SE1       30.12R                  
HEMET EAST       N/A     45  40  82 CALM      30.07R                  
FRENCH VALLEY  PTSUNNY   46  46 100 S6        30.13S                  
TEMECULA         N/A     49  48  99 S1        30.12R                  

$$

SAN BERNARDINO AND RIVERSIDE COUNTY MOUNTAINS
  
CITY           SKY/WX    TMP DP  RH WIND       PRES   REMARKS
BIG BEAR AP    CLOUDY    28  25  86 CALM      30.00F                  
ANGELUS OAKS     N/A     30  28  90 CALM      30.05S                  

$$

SOUTHERN DESERT INCLUDING THE COACHELLA VALLEY
  
CITY           SKY/WX    TMP DP  RH WIND       PRES   REMARKS
PALM SPRINGS   CLEAR     52  40  63 N6        30.04R                  
PALM DESERT      N/A     52  40  62 CALM      29.93R                  
THERMAL        CLEAR     57  39  51 NW8       30.01R                  
BORREGO AP     FAIR      55  34  44 N14       30.05R                  
BLYTHE         CLEAR     53  39  59 SW9       30.01R                  
IMPERIAL AP    CLEAR     57  39  51 W13G23    30.04R                  
EL CENTRO NAS  PTCLDY    57  37  47 W14       30.07R                  
YUMA AZ        CLEAR     54  40  59 NW5       30.05R                  

$$

UPPER DESERT
  
CITY           SKY/WX    TMP DP  RH WIND       PRES   REMARKS
VICTORVILLE AP CLEAR    N/A N/A N/A CALM      30.03                   
HESPERIA         N/A     43  37  78 SW8       30.07S                  
APPLE VALLEY     N/A     43  36  77 N6        30.08R                  
PALMDALE       PTCLDY    44  35  70 SW15      30.04S                  
LANCASTER      PTCLDY    42  37  82 SW10      30.04S                  
EDWARDS AFB    PTCLDY    42  39  90 SW16      30.00S                  
DAGGETT        CLEAR     47  36  65 SW18      29.99S                  
29 PALMS N     CLEAR     43  35  73 N5        30.08R                  
NEEDLES        MOCLDY    54  39  57 W10       29.98R                  

$$

REGIONAL REPORTS
  
CITY           SKY/WX    TMP DP  RH WIND       PRES   REMARKS
SANTA BARBARA  LGT RAIN  50  46  86 CALM      30.09S                  
SANDBERG       FOG       35  34  96 S8        30.03S VSB 3/4 WCI  29  
LAS VEGAS NV   MOCLDY    50  38  63 S12       29.92R                  
PHOENIX AZ     MOCLDY    59  40  49 N6        30.01R                  
TIJUANA        PTCLDY    50  48  93 CALM      30.17                   

$$

OFFSHORE ISLANDS
  
CITY           SKY/WX    TMP DP  RH WIND       PRES   REMARKS
CATALINA ARPT  MOCLDY    48  47  96 W13       30.11R                  
SAN CLEMENTE I MOCLDY    54  49  83 MISG      30.14                   
SAN NICOLAS IS CLOUDY    56  46  69 SW9       30.11S                  

$$

MARINE AND OFFSHORE BUOY REPORTS
  
STATION/POSITION SKY/WX   TEMP    WIND        PRES    VSBY  SWELL
                          AIR SEA DIR/SP/G                  HT/PER/DIR
                          (F)     (DEG/KT/KT) (MB)    (MI)  (FT/S/D)
TANNER BANKS               58 58              1020.0F
S CLEMENTE BASIN           58 60  270/ 10/ 14 1020.5R         8/270/15
SAN NICOLAS IS.               59                N/A           8/290/14
SO. S. ROSA ISLA           53 56  260/ 12/ 17 1019.1          8/290/15
W. S. BARBARA CH                              1018.2S         8/270/14
M. S. BARBARA CH           54 56   10/  4/  6 1019.3F         7/250/14
S. MONICA BASIN            56 58  280/ 12/ 16 1019.3R         5/240/15
S PEDRO CHANNEL               59                N/A           5/250/15
CMP PENDLETON NS              60                N/A           3/220/15
OCEANSIDE OFFSHR              60                N/A           3/230/13
TORREY PINES OTR              59                N/A           3/270/15
SAN DIEGO BAY                 62              1020.7R
IMPERIAL BEACH                60                N/A           5/270/15
POINT LOMA SOUTH              60                N/A           5/260/15

$$

  

SKY/WX - Weather  TMP - Temperature  DP - Dew Point  RH - Relative Humidity
WIND - Wind Direction/Speed PRES - Barometric Pressure VSB - Visibility
WCI - Wind Chill Index E13G22 Wind - East Wind 13 mph/Gusts of 22 mph